• In Moldova, Republic
  • List of Countries
  • For 7 days
  • Water Temperature
  • Satellite Maps
  • Weather Map
  • Weather Widgets
  • user-avatar
    Login

    Hourly Weather Ondjiwa

    Today, 27 February, Monday

    Time Temperature Precipitation Wind Pressure Humidity
    00:00 +24°C° 2.3 mm 2 mps 665 mmHg 77%
    01:00 +24°C° 0 mm 2 mps 665 mmHg 78%
    02:00 +24°C° 2.3 mm 2 mps 665 mmHg 80%
    03:00 +23°C° 2.3 mm 1 mps 664 mmHg 82%
    04:00 +23°C° 2.3 mm 1 mps 664 mmHg 83%
    05:00 +23°C° 0.8 mm 1 mps 664 mmHg 83%
    06:00 +23°C° 0.8 mm 1 mps 665 mmHg 82%
    07:00 +23°C° 0.8 mm 1 mps 665 mmHg 82%
    08:00 +25°C° 0.1 mm 2 mps 665 mmHg 73%
    09:00 +27°C° 0.1 mm 2 mps 666 mmHg 65%
    10:00 +29°C° 0.1 mm 2 mps 666 mmHg 56%
    11:00 +30°C° 0.2 mm 2 mps 666 mmHg 52%
    12:00 +31°C° 0.2 mm 2 mps 665 mmHg 48%
    13:00 +32°C° 0.2 mm 2 mps 665 mmHg 44%
    14:00 +32°C° 1.3 mm 2 mps 664 mmHg 47%
    15:00 +31°C° 1.3 mm 2 mps 664 mmHg 49%
    16:00 +31°C° 1.3 mm 3 mps 663 mmHg 52%
    17:00 +29°C° 2.3 mm 2 mps 663 mmHg 60%
    18:00 +27°C° 2.3 mm 2 mps 663 mmHg 68%
    19:00 +26°C° 2.3 mm 2 mps 663 mmHg 77%
    20:00 +25°C° 1 mm 2 mps 664 mmHg 78%
    21:00 +25°C° 1 mm 2 mps 664 mmHg 80%
    22:00 +25°C° 1 mm 1 mps 665 mmHg 82%
    23:00 +24°C° 1.7 mm 2 mps 665 mmHg 83%

    Tomorrow, 28 February, Tuesday

    Time Temperature Precipitation Wind Pressure Humidity
    00:00 +22°C° 1.7 mm 3 mps 664 mmHg 84%
    01:00 +22°C° 1.7 mm 4 mps 664 mmHg 85%
    02:00 +21°C° 0.8 mm 3 mps 664 mmHg 86%
    03:00 +21°C° 0.8 mm 3 mps 664 mmHg 86%
    04:00 +21°C° 0.8 mm 3 mps 664 mmHg 87%
    05:00 +21°C° 0.1 mm 3 mps 664 mmHg 86%
    06:00 +21°C° 0.1 mm 3 mps 664 mmHg 85%
    07:00 +21°C° 0.1 mm 3 mps 665 mmHg 84%
    08:00 +22°C° 0.3 mm 3 mps 665 mmHg 81%
    09:00 +24°C° 0.3 mm 2 mps 665 mmHg 78%
    10:00 +25°C° 0.3 mm 2 mps 666 mmHg 75%
    11:00 +25°C° 1.1 mm 3 mps 665 mmHg 72%
    12:00 +26°C° 1.1 mm 3 mps 665 mmHg 68%
    13:00 +27°C° 1.1 mm 3 mps 665 mmHg 65%
    14:00 +27°C° 0.6 mm 3 mps 665 mmHg 65%
    15:00 +27°C° 0.6 mm 3 mps 664 mmHg 65%
    16:00 +28°C° 0.6 mm 3 mps 664 mmHg 65%
    17:00 +26°C° 1.1 mm 3 mps 664 mmHg 71%
    18:00 +25°C° 1.1 mm 2 mps 664 mmHg 77%
    19:00 +24°C° 1.1 mm 2 mps 664 mmHg 84%
    20:00 +23°C° 0.5 mm 2 mps 664 mmHg 85%
    21:00 +23°C° 0.5 mm 2 mps 665 mmHg 86%
    22:00 +21°C° 0.5 mm 3 mps 665 mmHg 88%
    23:00 +21°C° 0.7 mm 3 mps 665 mmHg 88%

    Day after tomorrow, 1 March, Wednesday

    Time Temperature Precipitation Wind Pressure Humidity
    00:00 +21°C° 0.7 mm 3 mps 665 mmHg 88%
    01:00 +21°C° 0.7 mm 3 mps 665 mmHg 89%
    02:00 +21°C° 0.4 mm 3 mps 665 mmHg 90%
    03:00 +20°C° 0.4 mm 3 mps 664 mmHg 90%
    04:00 +20°C° 0.4 mm 3 mps 664 mmHg 91%
    05:00 +20°C° 0 mm 3 mps 665 mmHg 91%
    06:00 +20°C° 0 mm 3 mps 665 mmHg 90%
    07:00 +21°C° 0 mm 3 mps 665 mmHg 90%
    08:00 +21°C° 0 mm 3 mps 666 mmHg 86%
    09:00 +23°C° 0 mm 2 mps 666 mmHg 83%
    10:00 +24°C° 0 mm 2 mps 667 mmHg 79%
    11:00 +25°C° 0.2 mm 2 mps 666 mmHg 74%
    12:00 +26°C° 0.2 mm 2 mps 666 mmHg 70%
    13:00 +28°C° 0.2 mm 2 mps 665 mmHg 65%
    14:00 +28°C° 0.3 mm 2 mps 665 mmHg 64%
    15:00 +28°C° 0.3 mm 2 mps 664 mmHg 63%
    16:00 +28°C° 0.3 mm 2 mps 664 mmHg 62%
    17:00 +27°C° 0.7 mm 2 mps 664 mmHg 68%
    18:00 +26°C° 0.7 mm 1 mps 664 mmHg 74%
    19:00 +25°C° 0.7 mm 1 mps 665 mmHg 80%
    20:00 +24°C° 1.1 mm 1 mps 665 mmHg 81%
    21:00 +24°C° 1.1 mm 1 mps 665 mmHg 82%
    22:00 +24°C° 1.1 mm 2 mps 666 mmHg 83%
    23:00 +23°C° 0.5 mm 2 mps 665 mmHg 84%

    2 March, Thursday

    Time Temperature Precipitation Wind Pressure Humidity
    00:00 +23°C° 0.5 mm 2 mps 665 mmHg 86%
    01:00 +23°C° 0.5 mm 2 mps 665 mmHg 87%
    02:00 +23°C° 0 mm 2 mps 665 mmHg 88%
    03:00 +21°C° 0 mm 2 mps 664 mmHg 89%
    04:00 +21°C° 0 mm 2 mps 664 mmHg 90%
    05:00 +21°C° 0 mm 2 mps 665 mmHg 90%
    06:00 +21°C° 0 mm 2 mps 665 mmHg 89%
    07:00 +21°C° 0 mm 2 mps 666 mmHg 89%
    08:00 +24°C° 0.1 mm 2 mps 666 mmHg 81%
    09:00 +26°C° 0.1 mm 2 mps 667 mmHg 74%
    10:00 +27°C° 0.1 mm 1 mps 667 mmHg 67%
    11:00 +28°C° 0.5 mm 1 mps 666 mmHg 64%
    12:00 +29°C° 0.5 mm 1 mps 666 mmHg 60%
    13:00 +30°C° 0.5 mm 1 mps 665 mmHg 57%
    14:00 +30°C° 1.2 mm 1 mps 665 mmHg 58%
    15:00 +29°C° 1.2 mm 1 mps 664 mmHg 60%
    16:00 +29°C° 1.2 mm 1 mps 664 mmHg 61%
    17:00 +28°C° 1.1 mm 1 mps 664 mmHg 68%
    18:00 +26°C° 1.1 mm 2 mps 664 mmHg 75%
    19:00 +25°C° 1.1 mm 2 mps 664 mmHg 82%
    20:00 +25°C° 2.2 mm 2 mps 665 mmHg 83%
    21:00 +24°C° 2.2 mm 2 mps 665 mmHg 84%
    22:00 +24°C° 2.2 mm 2 mps 666 mmHg 85%
    23:00 +24°C° 0.6 mm 2 mps 665 mmHg 87%

    3 March, Friday

    Time Temperature Precipitation Wind Pressure Humidity
    00:00 +23°C° 0.6 mm 2 mps 665 mmHg 89%
    01:00 +23°C° 0.6 mm 2 mps 665 mmHg 91%
    02:00 +23°C° 0.8 mm 2 mps 665 mmHg 92%
    03:00 +23°C° 0.8 mm 2 mps 664 mmHg 94%
    04:00 +21°C° 0.8 mm 2 mps 664 mmHg 95%
    05:00 +21°C° 0.1 mm 2 mps 665 mmHg 94%
    06:00 +21°C° 0.1 mm 2 mps 665 mmHg 94%
    07:00 +21°C° 0.1 mm 2 mps 665 mmHg 94%
    08:00 +23°C° 0.1 mm 2 mps 666 mmHg 89%
    09:00 +24°C° 0.1 mm 2 mps 666 mmHg 83%
    10:00 +25°C° 0.1 mm 2 mps 666 mmHg 78%
    11:00 +26°C° 0.8 mm 2 mps 666 mmHg 76%
    12:00 +26°C° 0.8 mm 2 mps 665 mmHg 73%
    13:00 +27°C° 0.8 mm 3 mps 665 mmHg 70%
    14:00 +27°C° 0.4 mm 2 mps 664 mmHg 71%
    15:00 +27°C° 0.4 mm 2 mps 664 mmHg 72%
    16:00 +26°C° 0.4 mm 2 mps 664 mmHg 73%
    17:00 +25°C° 1.2 mm 2 mps 664 mmHg 78%
    18:00 +24°C° 1.2 mm 2 mps 664 mmHg 84%
    19:00 +23°C° 1.2 mm 2 mps 664 mmHg 89%
    20:00 +23°C° 1.2 mm 2 mps 664 mmHg 90%
    21:00 +23°C° 1.2 mm 2 mps 664 mmHg 91%
    22:00 +21°C° 1.2 mm 2 mps 665 mmHg 92%
    23:00 +21°C° 1.3 mm 2 mps 664 mmHg 93%

    4 March, Saturday

    Time Temperature Precipitation Wind Pressure Humidity
    00:00 +21°C° 1.3 mm 2 mps 664 mmHg 93%
    01:00 +21°C° 1.3 mm 3 mps 664 mmHg 94%
    02:00 +21°C° 1.1 mm 2 mps 664 mmHg 94%
    03:00 +21°C° 1.1 mm 2 mps 663 mmHg 95%
    04:00 +21°C° 1.1 mm 2 mps 663 mmHg 95%
    05:00 +21°C° 0.7 mm 2 mps 664 mmHg 95%
    06:00 +21°C° 0.7 mm 2 mps 664 mmHg 95%
    07:00 +21°C° 0.7 mm 2 mps 664 mmHg 95%
    08:00 +21°C° 0.8 mm 2 mps 665 mmHg 92%
    09:00 +23°C° 0.8 mm 2 mps 665 mmHg 89%
    10:00 +22°C° 0.8 mm 3 mps 665 mmHg 86%
    11:00 +25°C° 0.6 mm 3 mps 665 mmHg 78%
    12:00 +26°C° 0.6 mm 3 mps 665 mmHg 70%
    13:00 +27°C° 0.6 mm 3 mps 664 mmHg 63%
    14:00 +27°C° 0.8 mm 3 mps 664 mmHg 60%
    15:00 +28°C° 0.8 mm 3 mps 664 mmHg 58%
    16:00 +28°C° 0.8 mm 3 mps 664 mmHg 55%
    17:00 +26°C° 0.3 mm 3 mps 664 mmHg 62%
    18:00 +25°C° 0.3 mm 2 mps 664 mmHg 68%
    19:00 +23°C° 0.3 mm 2 mps 664 mmHg 75%
    20:00 +23°C° 0 mm 2 mps 664 mmHg 77%
    21:00 +22°C° 0 mm 1 mps 664 mmHg 80%
    22:00 +22°C° 0 mm 1 mps 665 mmHg 82%
    23:00 +22°C° 0.1 mm 1 mps 665 mmHg 84%
    Show more